Flag for Colombia Weather past 2 weeks in Medellin, Colombia

Now
66 °F

Broken clouds.


Feels Like: 66 °F
Forecast: 64 / 87 °F
Wind: No wind

Location: Rionegro / J. M. Cordova


UV Index: 3 (Moderate)

Visibility: N/A


Pressure: 30.27 "Hg

Humidity: 73%

Dew point: 57 °F

Location of MedellinLocation

Historic Weather in Medellin

°F

Medellin temperature yesterday

Maximum temperature yesterday: 70 °F (at 3:00 PM)
Minimum temperature yesterday: 52 °F (at 11:00 PM)
Average temperature yesterday: 61 °F

Past Weeks' High & Low Weather Summary

 TemperatureHumidityPressure
High75 °F (Apr 7, 2:00 PM)100% (Apr 4, 1:00 AM)30.37 "Hg (Apr 4, 1:00 AM)
Low52 °F (Apr 17, 11:00 PM)44% (Apr 7, 2:00 PM)30.14 "Hg (Apr 14, 4:00 PM)
Average63 °F80%30.26 "Hg
* Reported Apr 3 9:00 AM — Apr 18 9:00 AM, Medellin, Weather by CustomWeather, © 2014

Note: Actual official high and low records may vary slightly from our data, if they occured in-between our weather recording intervals... More about our weather records

Advertising

Historic Weather Conditions — Data for Previous 24 hours

 ConditionsComfort  
Time TempWeatherWind HumidityBarometerVisibility
9:00 AM
Apr 18
63 °FBroken clouds.No wind77%30.28 "HgN/A
8:00 AM59 °FFog.No wind88%30.27 "Hg2 mi
7:00 AM55 °FFog.No wind100%30.25 "Hg1 mi
6:00 AM54 °FFog.2 mph100%30.22 "Hg1 mi
5:00 AM54 °FFog.No wind100%30.22 "Hg1 mi
4:00 AM54 °FFog.No wind100%30.21 "Hg0 mi
3:00 AM55 °FPassing clouds.No wind94%30.22 "HgN/A
2:00 AM57 °FPassing clouds.5 mph94%30.24 "HgN/A
1:00 AM57 °FPassing clouds.No wind94%30.25 "HgN/A
12:00 AM54 °FPassing clouds.No wind94%30.26 "Hg4 mi
11:00 PM
Apr 17
52 °FPassing clouds.No wind94%30.27 "HgN/A
10:00 PM55 °FPassing clouds.No wind88%30.26 "HgN/A
9:00 PM55 °FPassing clouds.2 mph88%30.24 "HgN/A
8:00 PM59 °FPassing clouds.No wind77%30.22 "HgN/A
7:00 PM63 °FPassing clouds.5 mph68%30.21 "HgN/A
6:00 PM66 °FScattered clouds.5 mph56%30.20 "HgN/A
5:00 PM70 °FPartly sunny.10 mph57%30.18 "HgN/A
4:00 PM70 °FPartly sunny.10 mph57%30.19 "HgN/A
3:00 PM70 °FPartly sunny.No wind57%30.22 "HgN/A
2:00 PM68 °FPartly sunny.No wind60%30.25 "HgN/A
1:00 PM66 °FBroken clouds.8 mph64%30.28 "HgN/A
12:00 PM64 °FMore clouds than sun.6 mph68%30.31 "HgN/A
11:00 AM63 °FMostly cloudy.8 mph83%30.31 "HgN/A
10:00 AM61 °FPartly sunny.7 mph88%30.32 "Hg6 mi
Weather by CustomWeather, © 2014

See weather overview